Content
SEND FEEDBACK

Daily
Averages
Monthly
Summary
United States of America

ASHVILLE, NORTH CAROLINA


Home > North America > United States > North Carolina
Elevation: 2240 feet     Latitude: 35 36N     Longitude: 082 32W

WEATHER
 
SELECT A DAY
Number of Records: 226,235;   Date Range: 1/1/95 - 8/25/14
 
SHARE

PRINT THIS DATA

[ ← Previous Day ]
WEATHER ALMANAC - APRIL 7, 2013
[ Next Day → ]
[ °C ]   °F
Weather ElementAverageHighLow
Temperature56.8 °F68 °F (2:54 pm)44.1 °F (5:54 am)
Dewpoint38.7 °F43 °F (2:54 pm)33.1 °F (6:54 am)
Humidity51.9 %68 % (5:54 am)39 % (12:54 pm)
Barometer28.82 in30.19 in (8:54 am) (7:00 pm)
Wind Speed8.9 mph17.3 mph (12:54 pm)
Wind Gust25.3 mph (11:54 am)
Weather ElementAverage
Visibility10 mi
Wind DirectionSSE (151.7 °)

Weather ElementTotal
Precipitation---
Heating Degree Days9 (Base 65)
Growing Degree Days6.1 (Base 50)
Averaged from 23 records on April 7, 2013
WEATHER CONDITIONS BREAKOUT
WIND DIRECTION BREAKOUT
WEATHER BY HOUR - APRIL 7, 2013
[ °C ]   °F
Local TimeTemperatureDewpointHumidityBarometerVisibilityWind DirectionWind SpeedGust SpeedPrecipitationEventsConditions
1:54 AM46.9 °F34.0 °F61 %30.16 in10.0 miCalmClear
2:54 AM46.0 °F34.0 °F63 %30.14 in10.0 miSE (140°)4.6 mphClear
3:54 AM48.0 °F34.0 °F58 %30.15 in10.0 miSSW (200°)9.2 mphClear
4:54 AM46.9 °F34.0 °F61 %30.15 in10.0 miSSE (160°)10.4 mphClear
5:54 AM44.1 °F34.0 °F68 %30.15 in10.0 miSE (140°)3.5 mphClear
6:54 AM46.0 °F33.1 °F61 %30.16 in10.0 miSouth (170°)4.6 mphClear
7:54 AM46.0 °F35.1 °F66 %30.18 in10.0 miSSE (150°)3.5 mphClear
8:54 AM50.0 °F36.0 °F59 %30.19 in10.0 miSE (140°)5.8 mphClear
9:54 AM55.9 °F35.1 °F45 %30.18 in10.0 miSouth (170°)10.4 mphClear
10:54 AM60.1 °F37.0 °F42 %30.17 in10.0 miSSE (160°)12.7 mphClear
11:54 AM64.0 °F39.0 °F40 %30.16 in10.0 miSSW (200°)13.8 mph25.3 mphClear
12:54 PM66.9 °F41.0 °F39 %30.15 in10.0 miSouth (190°)17.3 mph24.2 mphClear
1:54 PM66.0 °F41.0 °F40 %30.12 in10.0 miSSW (210°)15.0 mph21.9 mphMostly Cloudy
2:54 PM68.0 °F43.0 °F40 %30.09 in10.0 miSouth (180°)12.7 mph20.7 mphClear
3:54 PM66.9 °F42.1 °F40 %30.08 in10.0 miSouth (170°)13.8 mphClear
4:54 PM66.9 °F43.0 °F42 %30.07 in10.0 miSouth (190°)17.3 mph21.9 mphClear
5:54 PM66.0 °F42.1 °F42 %30.08 in10.0 miSouth (190°)13.8 mph21.9 mphClear
6:54 PM63.0 °F42.1 °F46 %30.08 in10.0 miSouth (180°)13.8 mphClear
7:54 PM62.1 °F42.1 °F48 %30.10 in10.0 miSSW (200°)10.4 mphClear
8:54 PM59.0 °F42.1 °F53 %30.11 in10.0 miSouth (180°)6.9 mphClear
9:54 PM57.9 °F42.1 °F56 %30.12 in10.0 miSouth (170°)5.8 mphClear
10:54 PM55.0 °F42.1 °F62 %30.12 in10.0 miCalmClear
11:54 PM55.0 °F42.1 °F62 %10.0 miCalmClear
Hourly data recorded from KAVL, located miles away from Ashville, North Carolina







STORIES FROM OUR PARTNERS